"Pseudo-MPEC" for C02A8Y2

Created 2019 Jan 14 12:18:05 UT using Find_Orb

Click here for an explanation of pseudo-MPECs

 
 Astrometry: 
     C02A8Y2  C2019 01 11.36512 09 01 52.57 -16 59 13.6    ~1BAI 20.4 GVNEOCPG96
     C02A8Y2  C2019 01 11.37023 09 01 51.31 -16 59 59.7    ~1BAI 20.3 GVNEOCPG96
     C02A8Y2  C2019 01 11.37534 09 01 50.09 -17 00 45.9    ~1BAI 20.3 GVNEOCPG96
     C02A8Y2  C2019 01 11.38046 09 01 48.86 -17 01 32.3    ~1BAI 20.0 GVNEOCPG96
     C02A8Y2  C2019 01 11.45926 09 01 29.51 -17 13 19.8    ~1BCI 20.2 GVNEOCPI52
     C02A8Y2  C2019 01 11.46024 09 01 29.22 -17 13 28.7    ~1BCI 20.8 GVNEOCPI52
     C02A8Y2  C2019 01 11.46123 09 01 29.01 -17 13 38.1    ~1BCI 20.3 GVNEOCPI52
     C02A8Y2  C2019 01 11.46222 09 01 28.74 -17 13 46.6    ~1BCI 20.4 GVNEOCPI52
     C02A8Y2 |C2019 01 12y#MjU:$_][5RQBAstrometryuX^a)51cL]IG]-dYt=7!-F;e_xFt807
     C02A8Y2 |C2019 01 12AnCRWo6MhZ-bwxc^DXJ)1p#;sug'[$Ilt_Mj2;KsWHqta;R1x=[U807
     C02A8Y2 |C2019 01 12%:4N,b33,yNWM_ZDYA:f,l)AHYv%^`*RN29jredacted;yLvxUTK807
     C02A8Y2  C2019 01 12.35546 08 58 01.46 -19 25 19.5    ~1CCI 19.9 GVNEOCPI52
     C02A8Y2  C2019 01 12.35712 08 58 01.07 -19 25 33.2    ~1CCI 19.9 GVNEOCPI52
     C02A8Y2  C2019 01 12.35878 08 58 00.64 -19 25 47.9    ~1CCI 20.3 GVNEOCPI52
     C02A8Y2 KC2019 01 12`o0CjX`J/?bI#;w5Tg4Z=f5K8P9J40KDSpWmt@f\iiQf$_-8@$%U474
     C02A8Y2 KC2019 01 12F!sKy'uVtov;,?*]_cwlU=q4Lclick!+2DLAj';p'Bk7p;heG-p^474
     C02A8Y2 KC2019 01 12d#%ebk0ifTp'$w#p5N1Wm2d=p1PRK?*ivcU^T?MAsxxuZHdb3AUE474
     C02A8Y2 KC2019 01 12vB,frou1$:8yg6U?25APQTLaSf4I77p44T,LO=herePCVOdl**Xt474
     C02A8Y2 |C2019 01 133U6l8-Zc425=P?:`n%RS/e'4N,n=M\r'rd?YEyw322QRkJ.-Ys4H807
     C02A8Y2 |C2019 01 13jO%UI8TH5A4HforLPTrRTBaV4P$6%tT'MEW,TZDb\4)q60Gj(TxJ807
     C02A8Y2 |C2019 01 13e$%t,,s=lMwji3$L*:\,^d`75!+o**J/YDo?=21D/!gBZ9'Nv3g`807
     C02A8Y2 |C2019 01 14XHy\1XZwwlbuUcbQwXLRE98qhF4g%6f;!DB[usM]I\14xgl$?8=2807
     C02A8Y2 |C2019 01 146m-QH+M*G1=Jn=[(o#Nsvfj.QXb.5)x\j)*uW4!explanationXr807

Station data:
(474) Mount John Observatory, Lake Tekapo  (S43.987388 E170.464960)  New
   Zealand.  Observers A. C. Gilmore, P. M. Kilmartin. Measurer P. M.
   Kilmartin. 1.0-m f/7.7 reflector + CCD.
(807) Cerro Tololo Observatory, La Serena  (S30.169136 W70.805900)  Chile.
   1.5-m Ritchey-Chrétien.
(G96) Mt. Lemmon Survey  (N32.442754 W110.788720)  US/Arizona.  Observers B.
   M. Africano, E. J. Christensen, G. A. Farneth, D. C. Fuls, A. R. Gibbs, A.
   D. Grauer, H. Groeller, J. A. Johnson, R. A. Kowalski, S. M. Larson, G. J.
   Leonard, R. L. Seaman, F. C. Shelly. 1.5-m reflector + 10K CCD.
(I52) Steward Observatory, Mt. Lemmon Station  (N32.442547 W110.788920)
   US/Arizona.  Observers B. M. Africano, E. J. Christensen, G. A. Farneth,
   D. C. Fuls, A. R. Gibbs, A. D. Grauer, H. Groeller, J. A. Johnson, R. A.
   Kowalski, S. M. Larson, G. J. Leonard, R. L. Seaman, F. C. Shelly. 1.0-m
   reflector + CCD.

Orbital elements:  C02A8Y2
   Perihelion 2019 Jan 9.340484 +/- 0.0327 TT =  8:10:17 (JD 2458492.840484)
Epoch 2019 Jan 14.0 TT = JDT 2458497.5   Earth MOID: 0.1851   AutoNEOCP
M   1.35359237 +/- 0.022            (J2000 ecliptic)
n   0.29050060 +/- 0.00609          Peri.  188.86812 +/- 0.027
a   2.25789990 +/- 0.0316           Node   287.26797 +/- 0.044
e   0.4841917 +/- 0.00666           Incl.   35.87477 +/- 0.19
P   3.39                   H 21.7   G  0.15   U  9.3  
q 1.16464330 +/- 0.00122    Q 3.35115649 +/- 0.0608
From 23 observations 2019 Jan. 11-14; mean residual 0".27
Residuals in arcseconds: 
190111 G96  .34-  .00     190112 807  .18-  .73-    190112 474  .11-  .23+    
190111 G96  .38-  .01+    190112 807  .34+  .43+    190112 474  .18-  .18+    
190111 G96  .16+  .10-    190112 807  .01-  .30+    190113 807  .06+  .18-    
190111 G96  .58+  .33-    190112 I52  .20-  .51-    190113 807  .22+  .06-    
190111 I52  .55+  .36+    190112 I52  .11+  .21+    190113 807  .14+  .05+    
190111 I52  .17-  .24+    190112 I52  .15-  .08-    190114 807  .09+  .02+    
190111 I52  .29+  .29-    190112 474  .11-  .09-    190114 807  .10+  .09-    
190111 I52  .12-  .08+    190112 474  .53-  .32+    

Ephemerides (geocentric):
Date (UTC) HH   RA              Dec         delta   r     elong  mag " sig PA
---- -- -- --  -------------   -----------  ------ ------ -----  --- ---- ---
2019 01 14 12  08 49 35.016   -24 20 28.02  .25220 1.1660 131.5 20.6 .136 118
2019 01 14 13  08 49 25.130   -24 25 54.85  .25241 1.1661 131.4 20.6 .142 120
2019 01 14 14  08 49 15.241   -24 31 20.98  .25262 1.1661 131.4 20.6 .149 123
2019 01 14 15  08 49 05.352   -24 36 46.42  .25282 1.1661 131.3 20.6 .157 125
2019 01 14 16  08 48 55.461   -24 42 11.16  .25303 1.1661 131.3 20.6 .164 127
2019 01 14 17  08 48 45.569   -24 47 35.20  .25324 1.1662 131.2 20.6 .173 129
2019 01 14 18  08 48 35.676   -24 52 58.54  .25345 1.1662 131.2 20.6 .181 130
2019 01 14 19  08 48 25.782   -24 58 21.19  .25366 1.1662 131.1 20.6 .190 132
2019 01 14 20  08 48 15.887   -25 03 43.13  .25387 1.1662 131.1 20.6 .199 133
2019 01 14 21  08 48 05.991   -25 09 04.37  .25409 1.1663 131.0 20.6 .208 135
2019 01 14 22  08 47 56.094   -25 14 24.92  .25430 1.1663 131.0 20.6 .218 136
2019 01 14 23  08 47 46.196   -25 19 44.76  .25451 1.1663 130.9 20.6 .228 138
2019 01 15 00  08 47 36.297   -25 25 03.90  .25473 1.1663 130.9 20.6 .238 139
2019 01 15 01  08 47 26.397   -25 30 22.33  .25494 1.1664 130.8 20.6 .249 140
2019 01 15 02  08 47 16.497   -25 35 40.07  .25516 1.1664 130.8 20.6 .260 141
2019 01 15 03  08 47 06.595   -25 40 57.10  .25538 1.1664 130.7 20.6 .271 142
2019 01 15 04  08 46 56.693   -25 46 13.42  .25559 1.1664 130.7 20.6 .282 143
2019 01 15 05  08 46 46.790   -25 51 29.05  .25581 1.1665 130.6 20.6 .294 144
2019 01 15 06  08 46 36.886   -25 56 43.96  .25603 1.1665 130.6 20.6 .306 145
2019 01 15 07  08 46 26.982   -26 01 58.18  .25625 1.1665 130.5 20.6 .318 146
2019 01 15 08  08 46 17.077   -26 07 11.68  .25647 1.1665 130.5 20.6 .331 146
2019 01 15 09  08 46 07.172   -26 12 24.49  .25669 1.1666 130.4 20.6 .343 147
2019 01 15 10  08 45 57.266   -26 17 36.58  .25692 1.1666 130.4 20.6 .356 148
2019 01 15 11  08 45 47.360   -26 22 47.97  .25714 1.1666 130.3 20.6 .370 149
2019 01 15 12  08 45 37.453   -26 27 58.65  .25736 1.1666 130.3 20.6 .383 149
2019 01 15 13  08 45 27.545   -26 33 08.63  .25759 1.1667 130.2 20.6 .397 150
2019 01 15 14  08 45 17.638   -26 38 17.90  .25781 1.1667 130.2 20.7 .411 150
2019 01 15 15  08 45 07.730   -26 43 26.46  .25804 1.1667 130.1 20.7 .425 151
2019 01 15 16  08 44 57.821   -26 48 34.31  .25827 1.1668 130.1 20.7 .439 152
2019 01 15 17  08 44 47.913   -26 53 41.46  .25849 1.1668 130.0 20.7 .454 152
2019 01 15 18  08 44 38.004   -26 58 47.89  .25872 1.1668 130.0 20.7 .469 153
2019 01 15 19  08 44 28.095   -27 03 53.62  .25895 1.1668 129.9 20.7 .484 153
2019 01 15 20  08 44 18.186   -27 08 58.64  .25918 1.1669 129.9 20.7 .499 154
2019 01 15 21  08 44 08.276   -27 14 02.96  .25941 1.1669 129.8 20.7 .515 154
2019 01 15 22  08 43 58.367   -27 19 06.56  .25964 1.1669 129.8 20.7 .531 154
2019 01 15 23  08 43 48.457   -27 24 09.46  .25988 1.1670 129.7 20.7 .547 155
2019 01 16 00  08 43 38.548   -27 29 11.64  .26011 1.1670 129.7 20.7 .563 155
2019 01 16 01  08 43 28.639   -27 34 13.12  .26034 1.1670 129.6 20.7 .580 156
2019 01 16 02  08 43 18.729   -27 39 13.89  .26058 1.1670 129.6 20.7 .596 156
2019 01 16 03  08 43 08.820   -27 44 13.95  .26081 1.1671 129.5 20.7 .613 156
2019 01 16 04  08 42 58.911   -27 49 13.31  .26105 1.1671 129.5 20.7 .630 157
2019 01 16 05  08 42 49.002   -27 54 11.95  .26128 1.1671 129.4 20.7 .648 157
2019 01 16 06  08 42 39.093   -27 59 09.88  .26152 1.1672 129.4 20.7 .665 157
2019 01 16 07  08 42 29.185   -28 04 07.11  .26176 1.1672 129.3 20.7 .683 158
2019 01 16 08  08 42 19.277   -28 09 03.63  .26199 1.1672 129.3 20.7 .701 158
2019 01 16 09  08 42 09.369   -28 13 59.44  .26223 1.1673 129.2 20.7 .719 158
2019 01 16 10  08 41 59.462   -28 18 54.54  .26247 1.1673 129.2 20.7 .738 159
2019 01 16 11  08 41 49.555   -28 23 48.93  .26271 1.1673 129.1 20.7 .756 159